Weather History for South Lake Tahoe, CA

Change the Weather History Date:

Friday, March 22, 2013

  Actual Average Record
Temperature  
Mean Temperature 36 °F 36 °F  
Max Temperature 49 °F 49 °F 65 °F (2004)
Min Temperature 23 °F 24 °F 7 °F (1973)
Degree Days  
Heating Degree Days 29 29  
Month to date heating degree days 564 665  
Since 1 July heating degree days 5582 5902  
Cooling Degree Days 0 0  
Month to date cooling degree days 0 0  
Year to date cooling degree days 0 0  
Moisture  
Dew Point 12 °F    
Average Humidity 49    
Maximum Humidity 85    
Minimum Humidity 12    
Precipitation  
Precipitation 0.00 in - 1.12 in (1975)
Month to date precipitation 0.89  
Year to date precipitation 1.79  
Sea Level Pressure  
Sea Level Pressure 30.02 in    
Wind  
Wind Speed 3 mph (SE)    
Max Wind Speed 12 mph    
Max Gust Speed 20 mph    
Visibility 10 miles    
Events      
T = Trace of Precipitation, MM = Missing Value Source: NWS Daily Summary

Daily Weather History Graph

Daily Weather History Graph

Search for Another Location

Airport:

Trip Planner

Search our weather history database for the weather conditions in past years. The results will help you decide how hot, cold, wet, or windy it might be!

Date:

Astronomy

Mar. 22, 2013 Rise Set
Actual Time 6:59 AM PDT 7:14 PM PDT
Civil Twilight 6:33 AM PDT 7:40 PM PDT
Nautical Twilight 6:02 AM PDT 8:12 PM PDT
Astronomical Twilight 5:30 AM PDT 8:43 PM PDT
Moon 2:48 PM PDT (3/22) 4:01 AM PDT (3/22)
Length of Visible Light 13h 07m
Length of Day
12h 14m
Waxing Gibbous, 78% of the Moon is Illuminated
Mar 22
Waxing Gibbous
Mar 27
Full
Apr 2
Last Quarter
Apr 10
New
Apr 18
First Quarter

Hourly Weather History & Observations

Time (PDT) Temp. Windchill Dew Point Humidity Pressure Visibility Wind Dir Wind Speed Gust Speed Precip Events Conditions
12:53 AM 30.0 °F - 25.0 °F 82% 30.02 in 10.0 mi Calm Calm - N/A   Clear
1:53 AM 28.9 °F - 25.0 °F 85% 30.02 in 10.0 mi Calm Calm - N/A   Clear
2:53 AM 28.0 °F - 24.1 °F 85% 30.01 in 10.0 mi Calm Calm - N/A   Clear
3:53 AM 27.0 °F 21.6 °F 23.0 °F 85% 30.00 in 10.0 mi South 4.6 mph - N/A   Clear
4:53 AM 27.0 °F 20.5 °F 21.9 °F 81% 29.99 in 10.0 mi South 5.8 mph - N/A   Clear
5:53 AM 25.0 °F 18.1 °F 19.0 °F 78% 30.00 in 10.0 mi SSW 5.8 mph - N/A   Clear
6:53 AM 24.1 °F 17.0 °F 16.0 °F 71% 30.03 in 10.0 mi SSW 5.8 mph - N/A   Clear
7:53 AM 24.1 °F 18.2 °F 17.1 °F 75% 30.05 in 10.0 mi South 4.6 mph - N/A   Clear
8:53 AM 28.9 °F 25.2 °F 18.0 °F 64% 30.04 in 10.0 mi South 3.5 mph - N/A   Clear
9:53 AM 37.0 °F 34.5 °F 16.0 °F 42% 30.01 in 10.0 mi ENE 3.5 mph - N/A   Clear
10:53 AM 43.0 °F - 9.0 °F 25% 29.99 in 10.0 mi Calm Calm - N/A   Clear
11:53 AM 43.0 °F 40.3 °F -0.9 °F 16% 30.00 in 10.0 mi Variable 4.6 mph - N/A   Clear
12:53 PM 44.1 °F 41.5 °F -2.0 °F 15% 30.00 in 10.0 mi North 4.6 mph 17.3 mph N/A   Clear
1:53 PM 46.0 °F 42.5 °F -0.9 °F 14% 29.98 in 10.0 mi NNE 6.9 mph - N/A   Clear
2:53 PM 48.0 °F - 1.9 °F 15% 29.98 in 10.0 mi NE 8.1 mph - N/A   Clear
3:53 PM 46.9 °F - -0.0 °F 14% 29.98 in 10.0 mi NNE 6.9 mph - N/A   Clear
4:53 PM 48.0 °F - -2.0 °F 13% 29.97 in 10.0 mi Calm Calm - N/A   Clear
5:53 PM 46.0 °F 43.1 °F -2.9 °F 13% 29.99 in 10.0 mi NNE 5.8 mph - N/A   Clear
6:53 PM 39.0 °F - 10.9 °F 32% 30.04 in 10.0 mi Calm Calm - N/A   Clear
7:53 PM 35.1 °F - 14.0 °F 42% 30.07 in 10.0 mi Calm Calm - N/A   Clear
8:53 PM 32.0 °F - 14.0 °F 48% 30.08 in 10.0 mi Calm Calm - N/A   Clear
9:53 PM 30.0 °F 26.5 °F 15.1 °F 54% 30.09 in 10.0 mi South 3.5 mph - N/A   Clear
10:53 PM 28.9 °F - 16.0 °F 58% 30.08 in 10.0 mi Calm Calm - N/A   Clear